Flag for U.S.A. Weather past 2 weeks in Neenah, Wisconsin, U.S.A.

Now
63 °F

Passing clouds.


Feels Like: 63 °F
Forecast: 34 / 57 °F
Wind: 6 mph from North

Location: Appleton / Outagamie

Current Time: Apr 27, 2015 at 6:01:06 PM

Latest Report: Apr 27, 2015 at 4:45 PM


Visibility: 10 mi

Pressure: 30.08 "Hg

Humidity: 27%

Dew point: 28 °F

Location of NeenahLocation

Historic Weather in Neenah — Graph

°F

Neenah temperature yesterday

Maximum temperature yesterday: 61 °F (at 4:45 PM)
Minimum temperature yesterday: 28 °F (at 5:45 AM)
Average temperature yesterday: 41 °F

Past Weeks' High & Low Weather Summary

 TemperatureHumidityPressure
High72 °F (Apr 17, 1:45 PM)100% (Apr 13, 6:45 AM)30.36 "Hg (Apr 13, 6:45 AM)
Low28 °F (Apr 23, 6:45 AM)14% (Apr 14, 4:45 PM)29.20 "Hg (Apr 20, 5:15 AM)
Average45 °F55%29.92 "Hg
* Reported Apr 12 3:45 PM — Apr 27 3:45 PM, Neenah, Weather by CustomWeather, © 2015

Note: Actual official high and low records may vary slightly from our data, if they occured in-between our weather recording intervals... More about our weather records

Advertising

Neenah weather history for previous 24 hours

 ConditionsComfort  
Time TempWeatherWind HumidityBarometerVisibility
3:45 PM
Mon, Apr 27
63 °FPassing clouds.9 mph27%30.09 "Hg10 mi
2:45 PM63 °FPassing clouds.12 mph27%30.11 "Hg10 mi
1:45 PM59 °FPassing clouds.12 mph31%30.12 "Hg10 mi
12:45 PM57 °FScattered clouds.14 mph36%30.13 "Hg10 mi
11:45 AM55 °FPassing clouds.14 mph38%30.14 "Hg10 mi
10:45 AM52 °FPassing clouds.12 mph47%30.14 "Hg10 mi
9:45 AM50 °FPassing clouds.10 mph47%30.13 "Hg10 mi
8:45 AM46 °FPassing clouds.10 mph53%30.14 "Hg10 mi
7:45 AM43 °FPassing clouds.13 mph57%30.12 "Hg10 mi
6:45 AM39 °FClear.9 mph65%30.12 "Hg10 mi
5:45 AM37 °FClear.8 mph70%30.12 "Hg10 mi
5:15 AM36 °FClear.9 mph75%30.10 "Hg10 mi
4:55 AM37 °FClear.9 mph70%30.10 "Hg10 mi
4:35 AM37 °FClear.9 mph70%30.10 "Hg10 mi
4:15 AM37 °FClear.8 mph75%30.11 "Hg10 mi
3:55 AM37 °FClear.7 mph75%30.11 "Hg10 mi
3:35 AM37 °FClear.8 mph75%30.11 "Hg10 mi
3:15 AM37 °FClear.8 mph75%30.10 "Hg10 mi
2:55 AM37 °FClear.8 mph81%30.10 "Hg10 mi
2:35 AM37 °FClear.8 mph81%30.10 "Hg10 mi
2:15 AM37 °FClear.8 mph75%30.10 "Hg10 mi
1:55 AM36 °FClear.7 mph81%30.10 "Hg10 mi
1:35 AM37 °FClear.7 mph75%30.10 "Hg10 mi
1:15 AM37 °FClear.5 mph70%30.11 "Hg10 mi
12:55 AM39 °FClear.6 mph65%30.10 "Hg10 mi
12:35 AM41 °FClear.6 mph66%30.10 "Hg10 mi
12:15 AM37 °FClear.7 mph75%30.11 "Hg10 mi
11:55 PM
Sun, Apr 26
37 °FClear.5 mph70%30.10 "Hg10 mi
11:35 PM41 °FClear.5 mph66%30.10 "Hg10 mi
11:15 PM41 °FClear.3 mph66%30.09 "Hg10 mi
10:45 PM45 °FClear.No wind53%30.09 "Hg10 mi
9:45 PM46 °FClear.5 mph50%30.08 "Hg10 mi
8:45 PM50 °FSunny.9 mph43%30.05 "Hg10 mi
7:45 PM54 °FSunny.10 mph35%30.03 "Hg10 mi
Weather by CustomWeather, © 2015

See weather overviewHow to use our weather pages